When you browse on this site, cookies collect data to enhance your experience and personalize the content and advertising you see.
Visit our Privacy Policy to learn more. By continuing to use the site, you agree to this use of cookies and data.
  • en Suisse
  • Liste des pays
  • À 7 jours
  • Température de l'eau
  • Carte satellitaire
  • Carte météo
  • Widgets météo
  • user-avatar
    Se connecter

    Météo par heure à Igls

    Ce jour, 23 Mars, Samedi

    Heure Température Précipitation Vent Pression Humidité
    00:00 +6°C° 0 mm 1 m/s 691 mmHg 70%
    01:00 +6°C° 0 mm 2 m/s 691 mmHg 64%
    02:00 +6°C° 0 mm 1 m/s 691 mmHg 65%
    03:00 +6°C° 0 mm 1 m/s 691 mmHg 66%
    04:00 +6°C° 0 mm 1 m/s 691 mmHg 67%
    05:00 +6°C° 0 mm 1 m/s 691 mmHg 67%
    06:00 +6°C° 0 mm 1 m/s 691 mmHg 67%
    07:00 +5°C° 0 mm 2 m/s 691 mmHg 63%
    08:00 +9°C° 0 mm 1 m/s 691 mmHg 63%
    09:00 +10°C° 0 mm 0 m/s 691 mmHg 62%
    10:00 +13°C° 0 mm 0 m/s 691 mmHg 62%
    11:00 +14°C° 0 mm 0 m/s 691 mmHg 59%
    12:00 +15°C° 0 mm 1 m/s 691 mmHg 56%
    13:00 +18°C° 0 mm 1 m/s 691 mmHg 54%
    14:00 +16°C° 0 mm 1 m/s 691 mmHg 56%
    15:00 +16°C° 0 mm 1 m/s 690 mmHg 59%
    16:00 +15°C° 0 mm 1 m/s 690 mmHg 61%
    17:00 +13°C° 0 mm 1 m/s 690 mmHg 68%
    18:00 +10°C° 0 mm 1 m/s 689 mmHg 76%
    19:00 +7°C° 0 mm 0 m/s 689 mmHg 83%
    20:00 +7°C° 0 mm 0 m/s 689 mmHg 84%
    21:00 +7°C° 0 mm 1 m/s 690 mmHg 84%
    22:00 +7°C° 0 mm 1 m/s 690 mmHg 84%
    23:00 +7°C° 0 mm 1 m/s 690 mmHg 83%

    Demain, 24 Mars, Dimanche

    Heure Température Précipitation Vent Pression Humidité
    00:00 +7°C° 0 mm 1 m/s 690 mmHg 81%
    01:00 +6°C° 0 mm 2 m/s 689 mmHg 80%
    02:00 +5°C° 0 mm 2 m/s 689 mmHg 77%
    03:00 +5°C° 0 mm 2 m/s 689 mmHg 75%
    04:00 +5°C° 0 mm 2 m/s 689 mmHg 73%
    05:00 +5°C° 0 mm 2 m/s 689 mmHg 71%
    06:00 +5°C° 0 mm 2 m/s 689 mmHg 68%
    07:00 +6°C° 0 mm 2 m/s 689 mmHg 66%
    08:00 +9°C° 0 mm 1 m/s 689 mmHg 61%
    09:00 +12°C° 0 mm 1 m/s 689 mmHg 57%
    10:00 +14°C° 0 mm 0 m/s 689 mmHg 52%
    11:00 +16°C° 0 mm 1 m/s 689 mmHg 51%
    12:00 +16°C° 0 mm 1 m/s 689 mmHg 50%
    13:00 +18°C° 0 mm 1 m/s 688 mmHg 49%
    14:00 +16°C° 0 mm 1 m/s 688 mmHg 53%
    15:00 +16°C° 0 mm 1 m/s 687 mmHg 57%
    16:00 +15°C° 0 mm 2 m/s 687 mmHg 61%
    17:00 +13°C° 0.1 mm 1 m/s 687 mmHg 71%
    18:00 +11°C° 0.1 mm 1 m/s 686 mmHg 81%
    19:00 +9°C° 0.1 mm 1 m/s 686 mmHg 91%
    20:00 +9°C° 0.1 mm 1 m/s 686 mmHg 92%
    21:00 +8°C° 0.1 mm 1 m/s 687 mmHg 94%
    22:00 +8°C° 0.1 mm 1 m/s 687 mmHg 96%
    23:00 +8°C° 0.1 mm 1 m/s 687 mmHg 95%

    Après-demain, 25 Mars, Lundi

    Heure Température Précipitation Vent Pression Humidité
    00:00 +8°C° 0.1 mm 1 m/s 686 mmHg 95%
    01:00 +7°C° 0.1 mm 1 m/s 686 mmHg 94%
    02:00 +7°C° 0 mm 1 m/s 686 mmHg 94%
    03:00 +6°C° 0 mm 1 m/s 685 mmHg 94%
    04:00 +6°C° 0 mm 1 m/s 685 mmHg 93%
    05:00 +6°C° 0.1 mm 1 m/s 685 mmHg 94%
    06:00 +6°C° 0.1 mm 1 m/s 685 mmHg 94%
    07:00 +6°C° 0.1 mm 1 m/s 685 mmHg 94%
    08:00 +6°C° 0.2 mm 2 m/s 685 mmHg 90%
    09:00 +7°C° 0.2 mm 2 m/s 685 mmHg 86%
    10:00 +7°C° 0.2 mm 2 m/s 685 mmHg 82%
    11:00 +7°C° 0.3 mm 2 m/s 684 mmHg 81%
    12:00 +7°C° 0.3 mm 3 m/s 684 mmHg 80%
    13:00 +7°C° 0.3 mm 3 m/s 683 mmHg 79%
    14:00 +5°C° 0.5 mm 3 m/s 683 mmHg 82%
    15:00 +4°C° 0.5 mm 3 m/s 683 mmHg 85%
    16:00 +3°C° 0.5 mm 4 m/s 683 mmHg 88%
    17:00 +2°C° 1.1 mm 3 m/s 683 mmHg 90%
    18:00 +1°C° 1.1 mm 3 m/s 684 mmHg 91%
    19:00 -1°C° 1.1 mm 3 m/s 684 mmHg 93%
    20:00 -1°C° 0.4 mm 3 m/s 685 mmHg 93%
    21:00 -2°C° 0.4 mm 3 m/s 686 mmHg 92%
    22:00 -4°C° 0.4 mm 3 m/s 686 mmHg 91%
    23:00 -4°C° 0.2 mm 3 m/s 687 mmHg 91%

    26 Mars, Mardi

    Heure Température Précipitation Vent Pression Humidité
    00:00 -4°C° 0.2 mm 3 m/s 687 mmHg 90%
    01:00 -3°C° 0.2 mm 2 m/s 687 mmHg 90%
    02:00 -3°C° 0.4 mm 2 m/s 688 mmHg 90%
    03:00 -3°C° 0.4 mm 2 m/s 688 mmHg 90%
    04:00 -3°C° 0.4 mm 2 m/s 688 mmHg 91%
    05:00 -3°C° 0.1 mm 2 m/s 689 mmHg 90%
    06:00 -3°C° 0.1 mm 2 m/s 689 mmHg 89%
    07:00 -3°C° 0.1 mm 2 m/s 690 mmHg 88%
    08:00 -2°C° 0 mm 2 m/s 690 mmHg 82%
    09:00 -1°C° 0 mm 2 m/s 691 mmHg 75%
    10:00 +1°C° 0 mm 2 m/s 691 mmHg 68%
    11:00 +2°C° 0 mm 2 m/s 691 mmHg 67%
    12:00 +3°C° 0 mm 2 m/s 691 mmHg 66%
    13:00 +3°C° 0 mm 2 m/s 691 mmHg 65%
    14:00 +3°C° 0 mm 2 m/s 691 mmHg 66%
    15:00 +3°C° 0 mm 2 m/s 690 mmHg 68%
    16:00 +3°C° 0 mm 2 m/s 690 mmHg 69%
    17:00 +2°C° 0 mm 2 m/s 690 mmHg 76%
    18:00 +1°C° 0 mm 1 m/s 690 mmHg 83%
    19:00 0°C° 0 mm 1 m/s 690 mmHg 90%
    20:00 -1°C° 0 mm 1 m/s 691 mmHg 90%
    21:00 -1°C° 0 mm 1 m/s 691 mmHg 90%
    22:00 -2°C° 0 mm 1 m/s 692 mmHg 90%
    23:00 -2°C° 0 mm 1 m/s 692 mmHg 88%

    27 Mars, Mercredi

    Heure Température Précipitation Vent Pression Humidité
    00:00 -2°C° 0 mm 1 m/s 692 mmHg 85%
    01:00 -2°C° 0 mm 1 m/s 691 mmHg 83%
    02:00 -2°C° 0 mm 1 m/s 691 mmHg 81%
    03:00 -2°C° 0 mm 1 m/s 691 mmHg 79%
    04:00 -3°C° 0 mm 1 m/s 691 mmHg 77%
    05:00 -2°C° 0 mm 1 m/s 691 mmHg 76%
    06:00 -2°C° 0 mm 1 m/s 691 mmHg 75%
    07:00 -1°C° 0 mm 1 m/s 691 mmHg 74%
    08:00 +1°C° 0 mm 1 m/s 692 mmHg 67%
    09:00 +3°C° 0 mm 1 m/s 692 mmHg 61%
    10:00 +6°C° 0 mm 1 m/s 692 mmHg 55%
    11:00 +5°C° 0 mm 2 m/s 692 mmHg 58%
    12:00 +6°C° 0 mm 2 m/s 692 mmHg 60%
    13:00 +6°C° 0 mm 2 m/s 691 mmHg 62%
    14:00 +6°C° 0 mm 2 m/s 691 mmHg 66%
    15:00 +6°C° 0 mm 2 m/s 691 mmHg 70%
    16:00 +5°C° 0 mm 2 m/s 691 mmHg 74%
    17:00 +4°C° 0 mm 2 m/s 691 mmHg 81%
    18:00 +4°C° 0 mm 1 m/s 691 mmHg 87%
    19:00 +3°C° 0 mm 1 m/s 691 mmHg 94%
    20:00 +2°C° 0 mm 1 m/s 691 mmHg 94%
    21:00 +2°C° 0 mm 1 m/s 692 mmHg 94%
    22:00 +1°C° 0 mm 1 m/s 692 mmHg 94%
    23:00 +1°C° 0 mm 1 m/s 692 mmHg 94%

    28 Mars, Jeudi

    Heure Température Précipitation Vent Pression Humidité
    00:00 0°C° 0 mm 1 m/s 692 mmHg 93%
    01:00 0°C° 0 mm 1 m/s 692 mmHg 92%
    02:00 0°C° 0 mm 1 m/s 692 mmHg 91%
    03:00 0°C° 0 mm 1 m/s 692 mmHg 90%
    04:00 -1°C° 0 mm 1 m/s 692 mmHg 89%
    05:00 0°C° 0 mm 1 m/s 692 mmHg 87%
    06:00 0°C° 0 mm 1 m/s 692 mmHg 85%
    07:00 +1°C° 0 mm 1 m/s 692 mmHg 83%
    08:00 +3°C° 0 mm 1 m/s 692 mmHg 77%
    09:00 +5°C° 0 mm 1 m/s 692 mmHg 71%
    10:00 +7°C° 0 mm 1 m/s 693 mmHg 64%
    11:00 +8°C° 0 mm 1 m/s 692 mmHg 63%
    12:00 +8°C° 0 mm 1 m/s 692 mmHg 62%
    13:00 +9°C° 0 mm 1 m/s 692 mmHg 61%
    14:00 +8°C° 0 mm 2 m/s 691 mmHg 63%
    15:00 +8°C° 0 mm 2 m/s 691 mmHg 66%
    16:00 +8°C° 0 mm 2 m/s 691 mmHg 69%
    17:00 +7°C° 0 mm 1 m/s 691 mmHg 77%
    18:00 +5°C° 0 mm 1 m/s 691 mmHg 86%
    19:00 +4°C° 0 mm 1 m/s 691 mmHg 94%
    20:00 +3°C° 0 mm 1 m/s 691 mmHg 93%
    21:00 +3°C° 0 mm 1 m/s 691 mmHg 93%
    22:00 +3°C° 0 mm 1 m/s 692 mmHg 92%
    23:00 +3°C° 0 mm 1 m/s 692 mmHg 90%
    Voir plus